Regional Weather Roundup
Issued by NWS

Home | Current Version | Previous Version | Text Only | Print | Product List | Glossary On
Versions: 1 2 3 4 5 6 7 8 9 10 11 12 13 14 15 16 17 18 19 20 21 22 23 24 25 26 27 28 29 30 31 32 33 34 35 36 37 38 39 40 41 42 43 44 45 46 47 48 49 50
000
ASUS44 KLIX 250612
RWRLA
LOUISIANA WEATHER ROUNDUP
NATIONAL WEATHER SERVICE NEW ORLEANS LA
1200 AM CST SUN FEB 25 2018

NOTE: "FAIR" INDICATES FEW OR NO CLOUDS BELOW 12,000 FEET WITH NO
      SIGNIFICANT WEATHER AND/OR OBSTRUCTIONS TO VISIBILITY.
      SKY/WX - SKY CONDITION AND SIGNIFICANT WEATHER.
      TMP - AIR TEMPERATURE.    DP   - DEWPOINT TEMPERATURE.
      RH  - RELATIVE HUMIDITY.  PRES - PRESSURE.
      HX  - HEAT INDEX.         WCI  - WIND CHILL INDEX.

*  THESE STATIONS ARE NOT NWS OR FAA STATIONS AND ARE NOT UNDER
   NWS QUALITY CONTROL.

LAZ040-048-061>063-065-066-069-250700-
SOUTHEAST LOUISIANA

CITY           SKY/WX    TMP DP  RH WIND       PRES   REMARKS
N.O. INTL ARPT MOCLDY    73  71  93 S7        30.04R
6HR MIN TEMP:  73; 6HR MAX TEMP:  77;

N.O. LAKEFRONT FAIR      74  70  87 S10       30.04S
6HR MIN TEMP:  73; 6HR MAX TEMP:  78;

N.O. DOWNTOWN* FAIR      75  70  84 S7        30.05S
6HR MIN TEMP:  75; 6HR MAX TEMP:  78;

RESERVE*       CLOUDY    76  69  79 S10       30.03F
6HR MIN TEMP:  75; 6HR MAX TEMP:  77;

SLIDELL        CLOUDY    72  69  90 S7        30.03S
6HR MIN TEMP:  71; 6HR MAX TEMP:  76;

BATON ROUGE    CLOUDY    74  68  81 S14       30.01S
6HR MIN TEMP:  73; 6HR MAX TEMP:  77; 6HR PCP: TRACE;

BOOTHVILLE     FAIR      73  70  90 S9        30.06F FOG
6HR MIN TEMP:  73; 6HR MAX TEMP:  75;

BELLE CHASSE   MOCLDY    74  73  97 S9        30.04S
6HR MIN TEMP:  72; 6HR MAX TEMP:  76;

BOGALUSA*      CLOUDY    72  68  86 S6        30.04S
6HR MIN TEMP:  72; 6HR MAX TEMP:  78; 6HR PCP:  0.01;

GALLIANO*      FAIR      73  68  83 S9        30.05R
6HR MIN TEMP:  73; 6HR MAX TEMP:  76;

NEW ROADS*     MOCLDY    72  68  88 S9        30.01R
6HR MIN TEMP:  71; 6HR MAX TEMP:  73;

GONZALES*      MOCLDY    73  68  83 SW6       30.02R
6HR MIN TEMP:  73; 6HR MAX TEMP:  77;

HAMMOND*       MOCLDY    72  68  88 S7        30.03R
HOUMA*         CLOUDY    74  70  88 S6        30.04R
6HR MIN TEMP:  74; 6HR MAX TEMP:  75;

PORT FOURCHON* CLEAR     73  72  94 S8        30.05S FOG

$$

LAZ041-044-053-054-250700-
SOUTHWEST LOUISIANA

CITY           SKY/WX    TMP DP  RH WIND       PRES   REMARKS
LAKE CHARLES   CLOUDY    73  71  93 S8        29.98S
6HR MIN TEMP:  73; 6HR MAX TEMP:  75; 6HR PCP: TRACE;

LAFAYETTE      CLOUDY    74  71  91 S13       30.01S
6HR MIN TEMP:  74; 6HR MAX TEMP:  75; 6HR PCP: TRACE;

PATTERSON      FAIR      72  70  93 S9        30.03S
6HR MIN TEMP:  71; 6HR MAX TEMP:  75;

SALT POINT       N/A     70  68  93 VRB6      30.01S
6HR MIN TEMP:  70; 6HR MAX TEMP:  72;

NEW IBERIA     CLOUDY    74  69  85 S13       30.02S
6HR MIN TEMP:  73; 6HR MAX TEMP:  75; 6HR PCP: TRACE;

CHENAULT AIRPK CLOUDY   N/A N/A N/A S7        29.98F

$$

LAZ027-028-250700-
CENTRAL LOUISIANA

CITY           SKY/WX    TMP DP  RH WIND       PRES   REMARKS
FORT POLK      CLOUDY    73  69  89 S12       29.94F
6HR MIN TEMP:  72; 6HR MAX TEMP:  74; 6HR PCP: TRACE;

ALEXANDRIA INT CLOUDY    73  69  87 S13       29.94S
6HR MIN TEMP:  70; 6HR MAX TEMP:  75; 6HR PCP: TRACE;

ALEXANDRIA     CLOUDY    73  70  90 S10       29.95S
6HR MIN TEMP:  72; 6HR MAX TEMP:  75; 6HR PCP: TRACE;


$$

LAZ001-002-250700-
NORTHWEST LOUISIANA

CITY           SKY/WX    TMP DP  RH WIND       PRES   REMARKS
SHREVEPORT     CLOUDY    57  55  93 NW3       30.01R
6HR MIN TEMP:  56; 6HR MAX TEMP:  66; 6HR PCP:  0.25;

BARKSDALE AFB  CLOUDY    56  53  91 N3        30.01R
6HR MIN TEMP:  54; 6HR MAX TEMP:  63; 6HR PCP:  0.20;

DTN SHREVEPORT CLOUDY    57  54  89 CALM      30.02R
6HR MIN TEMP:  56; 6HR MAX TEMP:  62; 6HR PCP:  0.56;


$$

LAZ014-016-250700-
NORTHEAST LOUISIANA

CITY           SKY/WX    TMP DP  RH WIND       PRES   REMARKS
MONROE         HVY RAIN  54  52  93 N8        30.01R FOG
6HR MIN TEMP:  54; 6HR MAX TEMP:  76; 6HR PCP:  0.52;

TALLULAH       CLOUDY    62  58  86 NW15G28   29.98R
6HR MIN TEMP:  62; 6HR MAX TEMP:  79; 6HR PCP: TRACE;


$$




USA.gov is the U.S. government's official web portal to all federal, state and local government web resources and services.